Regional Weather Roundup
Issued by NWS

Home | Current Version | Previous Version | Graphics & Text | Print | Product List | Glossary On
Versions: 1 2 3 4 5 6 7 8 9 10 11 12 13 14 15 16 17 18 19 20 21 22 23 24 25 26 27 28 29 30 31 32 33 34 35 36 37 38 39 40 41 42 43 44 45 46 47 48 49 50
000
ASUS43 KFSD 130402
RWRSD

WEATHER ROUNDUP FOR SOUTH DAKOTA
NATIONAL WEATHER SERVICE SIOUX FALLS SD
1000 PM CST TUE DEC 12 2017

NOTE: "FAIR" INDICATES FEW OR NO CLOUDS BELOW 12,000 FEET WITH NO
SIGNIFICANT WEATHER AND/OR OBSTRUCTIONS TO VISIBILITY.


SDZ001>005-009-010-012>017-130500-
NORTHWEST AND NORTH CENTRAL SOUTH DAKOTA

CITY           SKY/WX    TMP DP  RH WIND       PRES   REMARKS
BUFFALO          N/A     51  16  24 NW33G45   29.79R
FAITH            N/A     52  14  22 NW26G39   29.72F
MOBRIDGE       CLOUDY    49  22  34 NW9       29.58F
$$

SDZ012>016-024>037-041>051-057-063-072>074-130500-
SOUTHWEST AND SOUTH CENTRAL SOUTH DAKOTA

CITY           SKY/WX    TMP DP  RH WIND       PRES   REMARKS
RAPID CTY ARPT CLOUDY    57  12  17 NW25G39   29.86F
PIERRE         CLOUDY    46  22  38 W17       29.70F
CUSTER         CLOUDY    48   9  20 NW12G20   29.95F
ELLSWORTH AFB  CLOUDY    57  12  17 NW23G37   29.86S
PHILIP         CLOUDY    40  19  43 W9        29.79F
PINE RIDGE     CLOUDY    46  21  37 W10       29.91F
SPEARFISH      FAIR      54  10  17 NW29G44   29.92F
WINNER         FAIR      50  20  30 W14       29.75F
$$

SDZ004>011-016>023-039-040-130500-
NORTHEAST SOUTH DAKOTA

CITY           SKY/WX    TMP DP  RH WIND       PRES   REMARKS
ABERDEEN       CLOUDY    34  27  75 SW10      29.57F WCI  26
WATERTOWN      CLOUDY    32  26  78 SW10      29.59F WCI  24
BROOKINGS      CLOUDY    33  25  72 S9          N/A  WCI  25
SISSETON         N/A     44  27  51 W8        29.51F
$$

SDZ017-020-022-023-036>040-048>070-130500-
SOUTHEAST SOUTH DAKOTA

CITY           SKY/WX    TMP DP  RH WIND       PRES   REMARKS
SIOUX FALLS    CLOUDY    37  26  64 SW8       29.67F
HURON          CLOUDY    38  25  59 SW8       29.63F
CHAMBERLAIN    CLOUDY    46  24  40 W16       29.70F
MITCHELL       CLOUDY    46  24  42 W13       29.68F
YANKTON        CLEAR     42  21  43 SW10      29.72F
$$

ABBREVIATIONS USED IN REMARKS
   TC - TEMPERATURE IN CELSIUS
  WCI - WIND CHILL INDEX
   HX - HEAT INDEX
  VSB - VISIBILITY





USA.gov is the U.S. government's official web portal to all federal, state and local government web resources and services.